Voltar ao catálogo

STARLINK-37783

AtivoComunicaçõesSSO
NORAD 69438·PAYLOAD·🇺🇸 United States

Lançado Jun 7, 2026 de Vandenberg Space Force Base

Loading…

Próximas Passagens (próximas 24 horas)

TLE

AtualizadoSource: CelesTrak SupGP

Época: Sep 14, 2026, 22:35 UTC

1 69438C 26126U   26257.94145833  .00070270  00000+0  21821-2 0  2574
2 69438  97.2847 119.2602 0002519  94.4819 238.8612 15.33389758    15

Acompanhe STARLINK-37783 em tempo real com AllMySat

Download on the App Store